Weather History for West Palm Beach, FL

Change the Weather History Date:

Monday, October 3, 2011

  Actual Average Record
Temperature  
Mean Temperature 82 °F 80 °F  
Max Temperature 86 °F 87 °F 93 °F (1988)
Min Temperature 77 °F 74 °F 60 °F (1929)
Degree Days  
Heating Degree Days 0 0  
Month to date heating degree days 0 0  
Since 1 July heating degree days 0 0  
Cooling Degree Days 17 15  
Month to date cooling degree days 46 47  
Year to date cooling degree days 3938 3255  
Growing Degree Days 31 (Base 50)    
Moisture  
Dew Point 64 °F    
Average Humidity 55    
Maximum Humidity 62    
Minimum Humidity 48    
Precipitation  
Precipitation 0.00 in 0.21 in 3.12 in (1899)
Month to date precipitation 0.00 0.62  
Year to date precipitation 35.77 49.69  
Snow  
Snow 0.00 in - - ()
Month to date snowfall 0.0  
Since 1 July snowfall 0.0  
Since 1 September snowfall 0.0  
Snow Depth 0.00 in    
Sea Level Pressure  
Sea Level Pressure 30.04 in    
Wind  
Wind Speed 8 mph (ENE)    
Max Wind Speed 14 mph    
Max Gust Speed 18 mph    
Visibility 10 miles    
Events      
T = Trace of Precipitation, MM = Missing Value Source: NWS Daily Summary

Daily Weather History Graph

Daily Weather History Graph

Search for Another Location

Airport:

Trip Planner

Search our weather history database for the weather conditions in past years. The results will help you decide how hot, cold, wet, or windy it might be!

Date:

Astronomy

Oct. 03, 2011 Rise Set
Actual Time 7:13 AM EDT 7:04 PM EDT
Civil Twilight 6:50 AM EDT 7:27 PM EDT
Nautical Twilight 6:23 AM EDT 7:54 PM EDT
Astronomical Twilight 5:56 AM EDT 8:21 PM EDT
Moon 1:41 PM EDT (10/3) No Moon Set
Length of Visible Light 12h 37m
Length of Day
11h 51m
Waxing Crescent, 45% of the Moon is Illuminated
Oct 3
Waxing Crescent
Oct 3
First Quarter
Oct 11
Full
Oct 19
Last Quarter
Oct 26
New

Hourly Weather History & Observations

Time (EDT) Temp. Heat Index Dew Point Humidity Pressure Visibility Wind Dir Wind Speed Gust Speed Precip Events Conditions
12:53 AM 79.0 °F - 64.9 °F 62% 30.01 in 10.0 mi ENE 6.9 mph - N/A   Scattered Clouds
1:53 AM 79.0 °F - 64.9 °F 62% 30.00 in 10.0 mi ENE 6.9 mph - N/A   Mostly Cloudy
2:53 AM 78.1 °F - 64.9 °F 64% 29.99 in 10.0 mi ENE 5.8 mph - N/A   Scattered Clouds
3:53 AM 78.1 °F - 64.0 °F 62% 29.99 in 10.0 mi ENE 6.9 mph - N/A   Scattered Clouds
4:53 AM 78.1 °F - 64.9 °F 64% 29.99 in 10.0 mi ENE 4.6 mph - N/A   Scattered Clouds
5:53 AM 78.1 °F - 64.9 °F 64% 30.01 in 10.0 mi ENE 6.9 mph - N/A   Mostly Cloudy
6:53 AM 78.1 °F - 64.0 °F 62% 30.02 in 10.0 mi ENE 6.9 mph - N/A   Mostly Cloudy
7:53 AM 78.1 °F - 64.0 °F 62% 30.04 in 10.0 mi ENE 6.9 mph - N/A   Mostly Cloudy
8:53 AM 80.1 °F 81.7 °F 64.0 °F 58% 30.05 in 10.0 mi ENE 6.9 mph - N/A   Mostly Cloudy
9:53 AM 82.0 °F 83.4 °F 64.0 °F 54% 30.06 in 10.0 mi ENE 6.9 mph - N/A   Scattered Clouds
10:53 AM 82.9 °F 84.0 °F 63.0 °F 51% 30.07 in 10.0 mi ENE 9.2 mph - N/A   Scattered Clouds
11:53 AM 82.9 °F 84.4 °F 64.0 °F 53% 30.08 in 10.0 mi Variable 6.9 mph - N/A   Mostly Cloudy
12:53 PM 84.9 °F 85.9 °F 63.0 °F 48% 30.06 in 10.0 mi NE 8.1 mph 17.3 mph N/A   Scattered Clouds
1:53 PM 84.9 °F 85.9 °F 63.0 °F 48% 30.04 in 10.0 mi Variable 6.9 mph - N/A   Scattered Clouds
2:53 PM 84.0 °F 84.9 °F 63.0 °F 49% 30.03 in 10.0 mi ENE 6.9 mph - N/A   Scattered Clouds
3:53 PM 84.9 °F 85.9 °F 63.0 °F 48% 30.02 in 10.0 mi ENE 12.7 mph - N/A   Scattered Clouds
4:53 PM 84.9 °F 85.9 °F 63.0 °F 48% 30.03 in 10.0 mi ENE 12.7 mph - N/A   Partly Cloudy
5:53 PM 82.9 °F 84.0 °F 63.0 °F 51% 30.03 in 10.0 mi ENE 9.2 mph - N/A   Partly Cloudy
6:53 PM 81.0 °F 82.2 °F 63.0 °F 54% 30.04 in 10.0 mi ENE 9.2 mph - N/A   Partly Cloudy
7:53 PM 80.1 °F 81.5 °F 63.0 °F 56% 30.05 in 10.0 mi NE 9.2 mph - N/A   Partly Cloudy
8:53 PM 80.1 °F 81.5 °F 63.0 °F 56% 30.06 in 10.0 mi ENE 6.9 mph - N/A   Partly Cloudy
9:53 PM 80.1 °F 81.5 °F 63.0 °F 56% 30.08 in 10.0 mi ENE 6.9 mph - N/A   Partly Cloudy
10:53 PM 79.0 °F - 63.0 °F 58% 30.08 in 10.0 mi ENE 8.1 mph - N/A   Partly Cloudy
11:53 PM 79.0 °F - 64.0 °F 60% 30.08 in 10.0 mi ENE 6.9 mph - N/A   Partly Cloudy